Theta_e
329 332 326 322 315 319 315 318 325 324 326 330 330 326 326 328 324 315 340 342 343 343 349 353 359 359 359 360 360 360 360 360 358 356 356 355 355 355 355 355 355 355 355 354 354 353 353 353 353
322 321 321 317 312 312 313 319 320 326 331 333 330 327 324 325 332 333 337 344 343 345 349 350 360 361 359 359 359 359 360 359 358 357 356 356 355 355 355 355 355 356 356 356 356 356 356 354 351
322 319 315 315 315 310 311 318 321 327 329 330 328 332 330 327 331 333 342 344 345 345 349 357 360 361 359 359 359 358 358 358 357 357 356 356 356 355 355 355 356 356 355 355 355 354 354 354 354
321 319 316 312 309 312 312 315 319 326 330 331 330 327 335 340 335 340 346 345 344 342 349 357 359 359 359 358 358 358 357 357 357 356 356 356 356 355 355 354 354 353 353 352 352 351 352 353 353
321 317 311 311 309 311 314 314 315 326 326 328 329 325 326 346 347 346 345 344 341 342 350 354 359 358 358 358 358 357 357 358 358 357 357 357 356 356 356 355 355 354 353 353 353 353 353 353 352
315 315 309 308 309 311 316 320 318 328 328 328 328 328 334 348 343 345 345 343 343 344 349 355 358 357 358 358 358 357 357 357 357 357 356 355 354 353 352 351 351 350 350 350 351 351 351 352 351
313 312 310 309 310 313 319 321 324 328 328 328 330 327 338 343 344 346 345 345 345 346 349 353 354 357 358 358 358 358 357 357 356 355 354 353 352 350 349 349 350 351 351 351 350 350 350 350 350
314 313 309 310 311 317 325 325 332 330 329 336 335 327 332 345 348 347 346 345 345 346 347 350 354 352 350 351 358 357 356 356 355 354 353 352 350 349 348 350 351 352 353 352 351 351 350 350 351
314 312 310 311 314 321 327 325 332 334 333 336 337 338 345 349 349 344 342 342 343 344 346 348 348 351 350 346 356 355 355 355 354 354 352 349 348 348 348 349 349 353 353 353 352 351 350 350 351
312 315 313 316 322 324 326 327 330 329 330 334 337 344 347 348 345 339 337 337 339 341 344 347 349 351 352 348 349 352 351 350 351 349 351 349 350 349 345 348 349 351 353 354 355 354 354 350 335
312 311 313 315 321 329 327 328 330 328 326 330 334 338 342 341 339 336 334 336 337 342 346 347 353 358 351 349 349 347 347 348 350 352 352 350 347 347 345 346 348 351 351 349 352 351 348 338 337
309 311 312 313 315 326 327 331 330 331 330 337 338 338 338 337 336 335 335 336 339 342 347 348 349 355 355 351 350 346 345 346 346 347 351 351 347 347 345 342 343 348 350 351 351 348 349 348 346
310 310 311 312 324 326 330 329 329 330 336 339 339 338 338 339 340 342 342 343 345 343 345 344 348 352 355 356 350 350 347 345 346 348 349 349 347 346 347 345 344 342 345 348 349 349 351 350 350
312 311 311 312 319 325 322 324 328 329 336 336 336 336 337 337 339 340 341 342 345 347 348 347 349 352 354 356 355 351 349 347 348 347 348 350 350 349 350 350 348 345 344 344 348 350 351 351 351
312 309 310 310 311 316 320 317 323 330 334 334 333 334 334 335 336 335 336 338 340 345 346 347 347 348 353 355 356 353 350 348 347 348 352 355 355 355 356 353 353 352 352 351 350 351 353 352 351
309 310 305 310 310 314 310 311 325 331 331 330 330 331 332 333 334 336 337 340 342 343 344 347 347 348 350 355 354 352 353 352 351 354 356 356 358 358 358 355 355 357 356 355 353 351 348 348 347
308 303 304 306 312 309 309 312 326 330 329 328 329 330 330 331 332 335 336 339 341 343 344 345 348 347 351 353 356 356 355 355 353 354 354 354 355 355 356 357 358 361 359 357 355 352 352 349 348
303 303 304 304 311 311 309 315 323 327 329 327 328 328 329 328 328 331 333 335 337 340 342 344 347 347 351 353 354 351 349 347 345 343 343 343 342 344 346 351 354 355 355 354 355 355 354 352 350
307 305 304 306 314 313 312 316 320 325 327 326 327 327 327 326 326 328 329 331 332 333 335 337 340 344 347 345 343 342 341 344 343 341 341 341 342 341 340 340 343 346 346 349 352 354 353 355 359
306 305 305 311 312 315 315 315 320 323 325 326 326 326 326 324 323 324 326 328 329 329 331 333 334 338 339 341 343 339 338 340 341 340 339 339 339 340 341 338 336 337 337 339 338 340 340 347 347
306 306 305 306 313 315 314 312 316 321 324 324 325 326 324 322 321 322 324 326 326 326 328 330 331 333 335 337 337 339 338 336 333 332 332 334 335 336 338 340 337 335 336 334 335 335 334 332 336
304 307 306 306 306 303 312 300 313 319 320 322 325 324 322 320 321 322 324 324 324 323 325 327 329 329 330 332 331 331 325 323 324 325 328 330 333 333 334 337 338 338 336 335 335 337 337 335 330
306 308 306 305 304 304 304 301 308 317 316 320 323 324 323 321 320 321 323 324 324 323 322 324 326 326 326 327 327 322 323 321 321 322 325 328 329 329 329 332 334 335 335 337 337 339 338 333 332
309 307 307 307 305 298 302 301 302 308 309 314 324 323 322 319 319 322 323 325 324 322 321 321 322 324 324 325 325 326 324 323 321 322 320 320 320 321 325 326 329 332 333 335 336 335 332 331 330
308 306 298 297 297 296 303 300 303 309 313 315 318 322 321 318 319 320 321 322 324 322 320 319 321 322 324 324 325 324 325 324 323 322 320 320 318 319 324 325 325 325 329 331 333 334 333 330 328
306 306 299 293 295 299 303 298 306 314 319 319 321 323 318 317 319 320 322 322 322 322 320 318 320 321 322 323 323 324 323 321 320 323 321 320 319 320 325 325 325 324 324 325 328 327 327 328 327
306 302 307 302 302 298 301 304 309 314 316 319 321 317 315 317 319 320 322 321 322 324 323 320 320 321 321 322 323 323 323 324 322 324 325 322 324 322 324 324 324 324 323 323 325 321 325 327 326
308 309 301 303 294 292 298 298 300 308 312 318 320 317 316 318 319 320 321 323 325 324 325 321 321 321 322 321 324 324 324 324 325 327 324 324 325 325 325 324 324 323 323 323 324 322 323 323 322
305 304 305 305 301 295 293 298 309 307 315 316 321 322 319 319 319 320 322 323 324 324 323 322 320 320 321 321 322 323 323 323 324 324 324 325 325 325 323 323 322 321 321 322 322 322 320 320 322
308 307 307 300 299 301 299 298 312 314 315 318 320 323 323 322 322 321 322 322 322 323 322 322 322 320 320 321 321 322 323 324 325 324 325 325 324 325 324 323 322 320 319 321 319 318 319 319 319
Wind_Speed
7 6 6 7 8 6 9 11 3 7 4 6 5 5 13 13 12 9 12 8 17 16 16 14 10 11 12 11 12 13 14 13 13 14 12 11 11 10 10 9 9 10 10 10 9 10 10 9 8
4 5 7 5 9 6 10 4 10 10 11 5 5 6 12 10 10 15 12 12 16 16 14 14 11 10 11 11 12 12 13 13 13 13 13 12 10 10 9 9 8 8 9 8 8 8 8 6 5
6 5 6 5 3 9 11 9 10 8 4 3 5 11 8 8 10 8 16 15 15 14 14 14 11 10 11 10 10 11 12 12 12 12 11 11 10 9 8 8 7 7 6 7 6 6 6 6 6
5 6 5 8 3 9 5 8 6 9 8 4 6 12 11 13 4 6 15 16 14 14 14 15 11 10 10 10 9 10 11 11 11 11 10 10 9 9 8 7 6 6 5 4 3 3 4 4 4
6 4 6 6 3 3 2 4 0 8 8 10 4 11 11 7 6 13 15 14 13 13 14 14 10 11 9 9 8 8 9 10 10 9 8 8 7 7 6 5 4 4 3 2 1 2 3 4 5
6 5 8 10 6 3 3 3 2 8 10 9 15 16 9 8 11 13 13 13 12 11 11 14 11 10 9 8 8 8 8 8 8 8 7 6 6 5 4 4 2 2 1 0 1 3 3 5 7
10 7 1 2 6 6 5 2 7 9 12 12 7 11 9 10 11 11 11 11 11 11 10 10 11 10 8 7 7 7 7 7 7 6 5 5 4 4 4 4 4 3 2 2 3 4 5 5 7
6 6 8 3 8 13 5 6 5 8 13 10 5 7 11 14 10 10 10 11 11 11 10 9 8 11 10 12 8 6 6 6 6 6 6 5 5 5 5 5 7 4 4 5 5 6 6 7 9
5 7 7 7 8 10 7 12 7 4 12 12 8 11 15 16 12 12 12 11 10 8 9 8 9 8 5 7 11 9 8 7 6 8 7 8 7 6 8 6 2 5 6 7 8 8 8 8 12
8 2 10 5 4 9 9 12 11 9 12 13 14 15 15 15 13 12 11 10 10 9 8 6 4 4 4 4 5 6 6 7 5 5 4 6 1 3 6 2 5 8 9 9 10 10 9 11 9
1 10 5 9 7 6 13 12 4 11 13 7 15 15 14 14 10 10 7 5 6 6 5 5 5 1 5 6 4 4 4 4 5 6 5 3 4 3 5 3 6 6 11 8 11 9 9 6 5
5 3 4 8 4 5 10 10 16 16 10 13 14 14 13 12 9 7 6 7 7 5 2 2 2 4 4 6 5 4 5 4 4 4 4 4 5 3 4 4 5 5 5 4 6 5 4 6 7
2 4 3 5 9 13 15 15 14 15 12 13 13 12 12 10 9 8 5 5 5 2 2 2 4 4 5 6 5 5 5 5 5 4 5 5 5 4 6 5 6 6 6 6 6 6 6 7 9
3 4 6 4 7 7 9 11 3 9 9 12 11 11 10 9 8 8 7 7 5 3 4 6 6 4 7 6 6 5 4 5 5 5 4 5 6 5 7 6 7 7 7 7 7 8 7 8 9
3 10 9 5 6 5 7 8 10 7 9 11 10 9 9 9 9 9 7 6 4 4 4 6 5 3 4 7 6 5 5 5 5 5 5 6 7 6 8 8 7 7 7 9 9 10 10 10 11
10 8 14 11 7 7 5 14 9 6 9 9 8 8 8 9 9 9 7 6 6 6 6 6 6 4 3 2 3 4 3 4 4 4 4 5 7 7 8 8 8 8 8 9 9 10 10 10 11
9 12 13 11 2 5 12 12 9 6 8 8 7 7 7 9 9 9 9 9 9 9 8 8 8 8 6 4 4 3 6 3 3 5 6 10 9 10 9 9 8 9 9 9 10 10 10 10 11
10 11 5 11 6 10 12 8 8 7 9 8 8 7 7 7 8 8 9 8 8 9 9 9 8 6 5 4 4 5 5 6 5 5 6 9 8 10 9 10 11 11 10 10 9 10 10 11 11
1 5 3 3 2 4 3 7 8 8 9 10 9 8 7 8 8 8 8 8 9 10 10 11 11 9 6 6 6 5 4 4 4 5 8 8 8 8 8 8 9 9 9 11 11 10 12 9 7
9 8 7 5 4 5 9 8 7 8 10 8 8 8 9 10 9 8 8 8 9 9 9 10 10 10 8 7 6 3 2 4 5 5 6 9 9 10 7 8 8 9 7 9 10 11 8 8 6
8 9 6 2 7 3 9 9 11 10 8 8 8 6 7 9 10 9 8 8 8 9 8 9 9 10 10 7 4 3 3 2 4 5 6 9 10 10 10 10 8 8 7 7 7 6 7 6 8
11 2 3 6 8 4 7 6 14 15 14 13 13 11 11 10 9 9 10 8 8 8 8 9 9 8 9 7 7 8 6 6 6 5 7 6 10 10 10 10 10 9 5 6 6 5 5 5 6
7 3 2 2 7 8 12 9 7 11 12 15 15 13 12 12 12 12 11 9 8 7 8 7 8 9 9 9 7 5 6 4 5 5 6 5 6 9 10 10 10 10 9 10 11 10 7 6 5
9 7 5 6 8 12 7 6 12 11 6 8 16 14 14 14 13 12 10 9 8 7 7 7 7 7 8 8 9 8 8 7 6 7 6 5 6 6 11 10 9 9 9 9 8 9 10 7 5
9 8 9 8 9 6 6 6 11 4 1 4 6 14 14 14 14 13 13 10 9 8 8 7 7 7 7 7 7 7 6 6 6 5 6 6 6 7 9 10 10 9 9 9 8 8 7 8 6
10 9 10 8 7 4 6 7 3 3 1 4 6 12 14 15 13 13 11 9 9 7 7 7 8 7 6 6 6 5 4 5 4 6 5 6 5 6 7 8 9 11 11 11 10 5 7 9 7
7 10 5 9 9 10 13 4 10 4 4 5 9 12 13 14 12 12 10 9 10 9 7 6 6 6 5 5 4 5 4 5 5 4 3 4 5 5 7 7 8 10 10 11 11 8 8 9 6
7 5 6 9 9 12 7 5 9 7 7 8 12 14 15 13 13 12 12 10 8 8 8 7 7 7 6 4 3 3 3 1 1 2 3 4 4 5 6 7 8 9 10 11 11 9 8 9 8
7 10 6 6 6 10 12 6 5 3 6 8 10 12 14 13 12 12 11 10 10 9 9 8 8 8 7 6 5 4 4 3 3 4 5 6 6 6 7 7 8 9 10 11 11 11 10 10 9
5 10 8 9 9 7 9 14 6 4 3 6 8 10 12 11 11 11 11 11 11 11 10 9 8 8 8 7 6 6 5 5 6 6 7 8 9 9 9 8 8 9 10 11 13 13 12 11 11
Wind_Direction
218 231 258 246 246 247 87 85 83 89 100 83 73 42 56 29 5 56 129 128 131 131 131 150 147 140 129 120 114 111 107 105 108 109 106 104 102 101 103 103 103 101 99 99 96 94 94 97 102
290 266 231 278 263 151 91 107 74 77 81 99 76 133 51 68 47 111 129 149 142 132 139 138 145 140 131 126 127 124 120 119 118 115 113 110 107 109 111 112 108 104 103 100 95 92 92 95 95
254 255 269 285 281 61 100 70 78 109 106 104 118 53 53 67 118 99 108 144 131 139 137 116 139 137 133 132 130 125 123 120 117 115 114 112 113 112 115 117 116 112 106 104 96 86 77 59 51
238 201 212 255 114 90 33 64 74 125 113 69 108 86 92 56 93 107 141 143 149 139 131 126 134 135 136 137 138 136 131 126 123 121 120 120 121 123 126 128 126 120 111 93 86 74 45 27 6
228 255 226 227 157 55 49 62 138 112 105 90 100 96 100 75 112 132 146 153 150 140 126 138 136 138 140 138 139 138 134 128 125 125 125 126 129 131 129 129 125 119 110 90 35 12 1 339 325
217 278 220 199 134 115 87 68 161 101 104 105 104 108 83 106 135 142 151 157 146 136 142 134 135 141 147 147 144 140 135 130 131 134 136 140 145 148 148 147 152 156 159 229 295 311 321 310 302
279 236 167 88 121 153 75 121 175 112 113 71 121 97 101 133 129 137 157 148 145 147 148 149 152 142 147 146 143 142 144 142 143 144 149 157 171 176 178 183 181 197 222 238 266 279 279 276 282
277 268 181 170 172 100 109 122 146 99 79 103 340 112 141 130 143 150 154 155 157 161 156 155 161 163 172 156 144 147 152 156 164 167 171 180 195 203 211 225 205 217 232 245 245 247 259 266 268
266 234 167 124 193 113 139 138 89 112 107 61 47 65 99 130 153 161 155 160 164 167 160 171 170 150 170 137 136 168 175 176 187 194 193 209 230 185 173 105 144 260 268 271 269 263 259 265 257
265 132 57 47 84 102 132 130 118 138 117 97 94 97 115 134 147 154 162 165 168 171 169 171 179 159 177 181 178 198 171 205 207 213 206 244 258 290 316 324 211 244 241 244 244 255 263 251 248
355 83 75 76 65 95 117 99 48 128 81 59 109 116 123 125 135 148 154 150 160 143 144 194 150 201 273 230 194 214 205 198 204 232 245 250 288 242 240 267 213 221 198 246 202 197 220 232 268
206 74 30 57 67 120 85 107 75 59 85 92 105 109 120 126 132 139 156 157 168 174 133 230 201 226 224 257 217 227 234 214 234 218 231 242 256 245 274 286 308 254 258 278 243 252 252 264 255
223 98 82 58 77 93 86 77 90 78 89 96 99 98 94 94 94 75 61 64 30 84 58 259 309 240 250 223 242 247 263 233 256 237 235 263 277 281 278 288 277 285 277 266 259 253 251 253 246
87 131 121 123 111 112 106 95 149 82 114 107 103 97 86 80 73 70 44 34 18 24 352 351 319 341 260 236 254 258 242 273 252 271 279 280 277 286 289 276 268 266 264 265 265 258 264 258 260
155 181 147 143 141 132 144 106 87 111 134 122 112 99 87 77 70 57 45 34 14 4 351 354 312 350 309 258 240 244 262 273 273 284 275 284 272 268 278 278 273 270 268 268 264 262 251 255 255
212 239 190 139 181 156 266 133 121 138 151 132 122 113 101 79 68 68 67 51 44 32 29 17 358 356 34 8 249 252 263 264 277 287 298 302 284 270 274 270 272 276 273 262 259 262 265 268 266
201 221 221 140 154 170 227 122 128 161 159 147 147 128 113 103 79 62 56 56 48 44 35 33 30 21 11 55 86 101 33 23 9 354 349 4 328 331 328 295 294 294 281 273 272 264 261 270 275
186 232 221 256 115 218 206 107 160 177 182 169 156 145 128 104 84 76 72 66 63 57 50 50 48 51 42 74 93 85 50 41 41 33 27 17 5 356 340 324 323 318 286 273 271 280 279 273 280
258 250 208 71 118 228 230 165 174 179 194 181 172 162 140 112 100 91 81 75 77 63 57 45 51 46 55 36 40 34 40 42 54 42 26 22 12 13 10 355 343 348 340 335 328 310 288 278 290
224 207 125 120 148 263 182 184 202 194 199 190 180 172 149 142 123 108 98 87 73 65 56 53 50 46 43 51 74 68 94 47 33 48 44 25 18 13 13 9 3 2 353 350 355 348 330 309 322
211 236 154 18 151 206 187 184 191 194 202 203 213 173 160 155 139 131 117 101 91 73 63 61 58 53 48 34 90 111 136 81 41 41 31 32 22 21 15 13 12 3 2 356 344 341 332 316 314
174 143 164 156 227 239 208 280 187 173 202 206 198 193 178 161 149 142 140 125 100 86 77 71 63 55 64 39 67 51 45 40 27 27 42 41 27 23 22 17 16 9 5 355 337 316 311 294 296
87 158 215 242 261 290 194 249 109 172 202 206 205 195 186 172 164 156 149 133 114 109 91 83 72 67 65 60 42 60 41 67 45 35 21 42 49 33 17 16 11 10 9 9 4 360 354 350 338
143 174 201 240 260 246 249 263 266 189 223 216 187 197 186 174 167 156 147 146 134 126 109 101 92 86 82 77 73 68 63 44 34 34 20 28 30 30 22 12 9 13 359 2 12 17 20 10 13
212 222 246 225 207 246 103 243 272 87 18 253 229 196 183 171 169 167 168 164 152 132 126 120 117 109 106 95 84 79 71 55 62 12 42 9 33 29 27 16 16 9 8 3 359 355 1 14 15
214 285 276 287 273 268 153 249 101 74 222 229 242 184 176 176 170 170 161 153 159 145 138 141 137 133 121 109 104 94 57 67 69 61 28 36 33 39 24 24 20 13 7 358 355 351 355 359 347
166 234 357 289 248 262 264 212 202 181 189 192 188 176 182 181 176 174 167 172 177 164 154 158 139 142 137 122 117 104 85 48 57 54 343 34 20 13 19 11 11 10 10 2 348 3 334 334 347
282 106 206 205 272 277 277 243 268 184 202 190 189 193 188 184 184 186 190 179 183 174 164 176 181 179 175 173 159 138 133 126 26 328 342 340 338 338 340 350 354 357 0 1 347 345 348 331 327
172 216 240 301 303 296 294 302 66 223 180 189 201 200 196 192 196 196 193 185 190 190 190 189 198 199 196 205 204 217 237 246 267 287 300 306 308 308 318 329 337 344 346 352 342 336 331 327 323
277 262 231 252 245 237 298 280 102 142 215 208 206 204 213 217 209 210 204 198 201 199 201 192 206 219 210 211 223 237 249 265 277 285 295 300 296 298 299 304 315 328 336 339 337 331 331 325 319